Regional Weather Roundup
Issued by NWS

Home | Current Version | Previous Version | Text Only | Print | Product List | Glossary On
Versions: 1 2 3 4 5 6 7 8 9 10 11 12 13 14 15 16 17 18 19 20 21 22 23 24 25 26 27 28 29 30 31 32 33 34 35 36 37 38 39 40 41 42 43 44 45 46 47 48 49 50
000
ASUS43 KDTX 041610
RWRMI
MICHIGAN HOURLY REGIONAL WEATHER ROUNDUP
NATIONAL WEATHER SERVICE DETROIT/PONTIAC MI
1200 PM EDT MON MAY 04 2015

NOTE: "FAIR" INDICATES FEW OR NO CLOUDS BELOW 12,000 FEET WITH NO
SIGNIFICANT WEATHER AND/OR OBSTRUCTION TO VISIBILITY.

MIZ047>049-052>055-059>063-066>070-074>076-081>083-041700-
SOUTHEAST LOWER MICHIGAN

CITY           SKY/WX    TMP DP  RH WIND       PRES   REMARKS
ADRIAN         CLOUDY    65  57  75 W10       30.09R
ALMA           PTSUNNY   69  57  67 W16G22    30.03R
ANN ARBOR      CLOUDY    66  58  75 SW14      30.07R
BAD AXE        CLOUDY    64  55  72 SW8       30.01R
CARO           CLOUDY    64  56  75 SW7       30.01R
DETROIT CITY   CLOUDY    65  57  75 SW12G24   30.06R
DETROIT        LGT RAIN  65  57  75 S18G26    30.07R
FLINT          CLOUDY    71  54  54 SW12G23   30.02R
GROSSE ILE     LGT RAIN  63  57  82 SW13      30.07R
HILLSDALE      CLOUDY    68  56  65 W13       30.09R
HOWELL         PTSUNNY   72  55  55 SW15G24   30.04R

CITY           SKY/WX    TMP DP  RH WIND       PRES   REMARKS
JACKSON        PTSUNNY   69  56  62 SW17G29   30.07R
LAMBERTVILLE   LGT RAIN  64  54  68 W6        30.10R
LANSING        PTSUNNY   71  54  54 W18G28    30.04R
LAPEER         CLOUDY    67  52  59 SW14      30.03R
MASON          PTSUNNY   71  53  54 SW13G20   30.05R
MONROE         LGT RAIN  63  57  82 W13       30.09R
MT. CLEMENS    PTSUNNY   67  58  72 SW18G26   30.02R
PONTIAC        CLOUDY    67  54  63 SW9G24    30.03R
PORT HOPE        N/A     64  57  78 VRB3      29.99R
PORT HURON     CLOUDY    63  55  77 SW9       30.03R
TRI CITIES     CLOUDY    69  56  62 W15       30.01R
MIDLAND        FAIR      68  55  64 W9G17     30.00R
TROY           CLOUDY    68  58  70 SW10G18   30.06S
SAGINAW HB     CLOUDY    68  55  64 SW13      30.00R
$$
MIZ043>046-050>051-056>058-064>065-071>073-077>080-041700-
SOUTHWEST LOWER MICHIGAN

CITY           SKY/WX    TMP DP  RH WIND       PRES   REMARKS
BATTLE CREEK   PTSUNNY   72  55  55 W16       30.07R
BENTON HARBOR  PTSUNNY   65  58  78 W14       30.09R
BIG RAPIDS     PTSUNNY   66  55  69 N9G22     30.03R
COLDWATER      CLOUDY    65  56  72 W12       30.09R
FREMONT        FAIR      66  55  66 N8        30.04R
HOLLAND        PTSUNNY   58  53  84 W13       30.09R
GRAND RAPIDS   PTSUNNY   67  56  67 W14G26    30.06R
IONIA          FAIR      69  56  64 W21G31    30.04R
KALAMAZOO      CLOUDY    71  56  58 W16G23    30.07R
LUDINGTON      PTSUNNY   63  56  77 N6        30.05R
MARSHALL       PTSUNNY   69  56  62 MISG      30.07R
MOUNT PLEASANT PTSUNNY   67  57  68 NW9       30.01R
MUSKEGON       CLOUDY    54  49  83 SW12      30.08R HAZE
SOUTH HAVEN    PTSUNNY   64  53  66 NW6       30.09R
$$
MIZ016>042-041700-
NORTHERN LOWER MICHIGAN

CITY           SKY/WX    TMP DP  RH WIND       PRES   REMARKS
ALPENA         CLOUDY    61  57  87 W5        29.99S
BEAVER ISLAND  CLOUDY    57  44  63 W8        30.05R
BELLAIRE       PTSUNNY   60  48  64 W9        30.05R
CADILLAC       CLOUDY    61  55  82 NW6       30.05R
CHARLEVOIX     CLOUDY    53  44  72 W9        30.08R
FRANKFORT      MOSUNNY   62  39  44 N12       30.07R
GAYLORD        PTSUNNY   61  48  62 VRB6      30.02R
GRAYLING       CLOUDY    60  55  85 NW8       30.03R
HARBOR SPRINGS CLOUDY    44  42  93 SW6       30.04R FOG
HOUGHTON LAKE  CLOUDY    61  55  81 NW13G22   30.02R
MANISTEE       PTSUNNY   61  54  77 NW10      30.06R
OSCODA         CLOUDY    63  59  89 W6        29.98S
PELLSTON       PTSUNNY   62  43  49 NW13      30.03R
ROGERS CITY    PTSUNNY   62  54  74 W10       30.00R
TRAVERSE CITY  PTSUNNY   62  50  64 N10       30.05R
$$
MIZ007>008-015-041700-
EASTERN UPPER MICHIGAN

CITY           SKY/WX    TMP DP  RH WIND       PRES   REMARKS
KINROSS        PTSUNNY   57  48  72 NW12      30.00R
MACKINAC ISLAN PTSUNNY   53  46  76 SW9       30.01R
NEWBERRY       CLOUDY    58  43  58 NW14G23   30.04R
S. S. MARIE    CLOUDY    56  45  66 NW12      29.99R
MUNISING         N/A     48  37  65 NW16      30.12R
$$
MIZ004>006-011>014-085-041700-
CENTRAL UPPER MICHIGAN

CITY           SKY/WX    TMP DP  RH WIND       PRES   REMARKS
MANISTIQUE     PTSUNNY   60  42  52 N17G25    30.06R
ESCANABA       SUNNY     63  39  42 N14G21    30.08R
MENOMINEE      SUNNY     64  41  42 N14       30.08R
SAWYER-GWINN   SUNNY     57  39  51 NE15G22   30.10R
$$
MIZ001>003-009>011-084-041700-
WESTERN UPPER MICHIGAN

CITY           SKY/WX    TMP DP  RH WIND       PRES   REMARKS
IRON MOUNTAIN  SUNNY     63  36  36 N18G24    30.09R
HOUGHTON       SUNNY     55  38  52 NW16G25   30.13R
COPPER HARBOR    N/A     51  39  63 N18       30.12R
IRONWOOD       SUNNY     55  37  50 NW13      30.15R
$$

ABBREVIATIONS USED IN REMARKS
   TC - TEMPERATURE IN CELSIUS
  WCI - WIND CHILL INDEX
   HX - HEAT INDEX
  VSB - VISIBILITY




USA.gov is the U.S. government's official web portal to all federal, state and local government web resources and services.